TimeEST,TemperatureF,Dew PointF,Humidity,Sea Level PressureIn,VisibilityMPH,Wind Direction,Wind SpeedMPH,Gust SpeedMPH,PrecipitationIn,Events,Conditions,WindDirDegrees,DateUTC
12:53 AM,69.1,64.0,84,30.17,10.0,ENE,5.8,-,N/A,,Partly Cloudy,70,2012-12-05 05:53:00
1:53 AM,69.1,64.9,87,30.17,10.0,South,5.8,-,N/A,,Overcast,180,2012-12-05 06:53:00
2:53 AM,68.0,62.1,81,30.15,10.0,Calm,Calm,-,0.07,,Overcast,0,2012-12-05 07:53:00
3:02 AM,66.2,62.6,88,30.15,10.0,Calm,Calm,-,N/A,,Overcast,0,2012-12-05 08:02:00
3:53 AM,66.0,63.0,90,30.14,10.0,WNW,3.5,-,N/A,,Overcast,290,2012-12-05 08:53:00
4:53 AM,64.9,64.0,97,30.13,10.0,North,3.5,-,N/A,,Overcast,350,2012-12-05 09:53:00
5:53 AM,64.0,62.1,93,30.14,10.0,NNW,5.8,-,N/A,,Overcast,340,2012-12-05 10:53:00
6:53 AM,63.0,62.1,97,30.15,10.0,Calm,Calm,-,N/A,,Scattered Clouds,0,2012-12-05 11:53:00
7:53 AM,64.0,62.1,93,30.17,10.0,North,4.6,-,N/A,,Clear,350,2012-12-05 12:53:00
9:53 AM,73.0,64.0,73,30.17,10.0,North,6.9,-,N/A,,Partly Cloudy,350,2012-12-05 14:53:00
10:53 AM,75.0,64.0,69,30.17,10.0,North,4.6,-,N/A,,Scattered Clouds,10,2012-12-05 15:53:00
11:53 AM,77.0,62.1,60,30.14,10.0,ESE,9.2,-,N/A,,Scattered Clouds,110,2012-12-05 16:53:00
12:53 PM,77.0,57.9,52,30.12,10.0,ESE,8.1,-,N/A,,Scattered Clouds,120,2012-12-05 17:53:00
1:53 PM,78.1,55.9,46,30.09,10.0,Variable,6.9,-,N/A,,Clear,0,2012-12-05 18:53:00
2:53 PM,75.9,54.0,46,30.07,10.0,East,8.1,-,N/A,,Clear,90,2012-12-05 19:53:00
3:53 PM,75.9,53.1,45,30.06,10.0,East,5.8,-,N/A,,Clear,90,2012-12-05 20:53:00
4:53 PM,73.9,54.0,50,30.06,10.0,East,4.6,-,N/A,,Clear,80,2012-12-05 21:53:00
5:53 PM,70.0,55.9,61,30.06,10.0,East,3.5,-,N/A,,Clear,90,2012-12-05 22:53:00
6:53 PM,61.0,55.9,83,30.06,10.0,Calm,Calm,-,N/A,,Clear,0,2012-12-05 23:53:00
7:53 PM,61.0,55.9,83,30.07,10.0,Calm,Calm,-,N/A,,Clear,0,2012-12-06 00:53:00
8:53 PM,60.1,55.9,86,30.07,10.0,Calm,Calm,-,N/A,,Clear,0,2012-12-06 01:53:00
9:53 PM,57.0,55.0,93,30.06,10.0,Calm,Calm,-,N/A,,Clear,0,2012-12-06 02:53:00
10:53 PM,57.9,55.9,93,30.06,10.0,Calm,Calm,-,N/A,,Clear,0,2012-12-06 03:53:00
11:53 PM,59.0,55.9,90,30.05,10.0,Calm,Calm,-,N/A,,Clear,0,2012-12-06 04:53:00